{"data":{"norad_id":49190,"intl_designator":"2021-083E","name":"ONEWEB-0320","alt_names":[],"object_type":"PAYLOAD","status":"ACTIVE","operator":null,"country":"UK","launch_date":"2021-09-14","launch_site_code":"TYMSC","launch_vehicle":null,"mission":null,"orbit_class":"UNKNOWN","rcs_meters":null,"size_class":null,"mass_kg":null,"dimensions":null,"purposes":["comms"],"wikipedia_slug":null,"has_3d_model":false,"image_url":null,"decayed_at":null,"tle_current":{"epoch":"2026-09-19T22:21:59.241888Z","epoch_age_seconds":74912,"freshness":"FRESH","line1":"1 49190U 21083E   26262.93193567 -.00000053  00000+0 -16762-3 0  9992","line2":"2 49190  87.9148 316.6308 0002036 104.3148 255.8210 13.18687335242467","mean_motion":13.18687335,"eccentricity":0.0002036,"inclination_deg":87.9148,"raan_deg":316.6308,"arg_perigee_deg":104.3148,"mean_anomaly_deg":255.821,"bstar":-0.00016762,"rev_number":24246,"period_min":109.19950179092,"perigee_km":1188.1971998471,"apogee_km":1191.2788385549,"semimajor_km":7567.875019201,"source":"CELESTRAK","updated_at":"2026-09-20T09:00:44.660973Z"}}}